Location: Unspecified
(0.0000°N, 0.0000°E)
Time: 12:21:56
(UTC+00:00)

Vanguard 2 - Pass Details

Date: 15 December 2018
Orbit: 553 x 2938 km, 32.9° (Epoch: 15 July)

Event Time Altitude Azimuth Distance (km) Brightness Sun altitude
Rises 15:11:25 0° 231° (SW) 3,912 12.1 37.0°
Reaches altitude 10° 15:14:41 10° 228° (SW) 2,621 11.5 36.3°
Maximum altitude 15:20:26 63° 147° (SSE) 759 8.0 35.0°
Drops below altitude 10° 15:24:33 10° 65° (ENE) 1,889 9.1 34.1°
Sets 15:26:34 0° 62° (ENE) 2,724 9.8 33.7°
